All
Leinster Airport (Leinster, Western Australia) LER Weather
|
Leinster, Western Australia (LER / YLST)
Clear skies
Light winds |
|
62 °F |
LER Terminal Area Forecast
| Date | Time (AWST) | Flight Rules | Wind Dir. | Speed | Type | Height AGL (ft) | Visibility | Remarks | ||||||
|---|---|---|---|---|---|---|---|---|---|---|---|---|---|---|
Recent LER METAR history
| Date | Time (AWST) | Flight Rules | Wind Dir. | Speed | Type | Height AGL (ft) | Visibility | Temp (°C) | Temp (°F) | Dew Point (°C) | Dew Point (°F) | Rel. Humid. | Pressure | Density Altitude | Remarks |
|---|---|---|---|---|---|---|---|---|---|---|---|---|---|---|---|
| 02-Sep | 10:00PM | VFR | 190° | 7 kt | 10000 meters | 17° | 62° | 7° | 44° | 52% | 1019 mb | 1,938 ft | |||
| 02-Sep | 09:00PM | VFR | 170° | 7 kt | 10000 meters | 18° | 64° | 7° | 44° | 49% | 1019 mb | 2,058 ft | |||
| 02-Sep | 08:00PM | VFR | 180° | 7 kt | 10000 meters | 19° | 66° | 7° | 44° | 46% | 1019 mb | 2,178 ft | |||
| 02-Sep | 07:00PM | VFR | 200° | 7 kt | 10000 meters | 20° | 68° | 7° | 44° | 43% | 1019 mb | 2,298 ft | |||
| 02-Sep | 06:00PM | VFR | 210° | 10 kt | 10000 meters | 22° | 71° | 7° | 44° | 38% | 1018 mb | 2,567 ft | |||
| 02-Sep | 05:00PM | VFR | 210° | 8 kt | 10000 meters | 23° | 73° | 7° | 44° | 36% | 1017 mb | 2,717 ft | |||
| 02-Sep | 04:00PM | VFR | 230° | 9 kt | 10000 meters | 24° | 75° | 6° | 42° | 31% | 1017 mb | 2,837 ft | |||
| 02-Sep | 03:00PM | VFR | 250° | 10 kt | 10000 meters | 24° | 75° | 6° | 42° | 31% | 1017 mb | 2,837 ft | |||
| 02-Sep | 02:00PM | VFR | 270° | 8 kt | 10000 meters | 24° | 75° | 7° | 44° | 34% | 1018 mb | 2,807 ft | |||
| 02-Sep | 01:00PM | VFR | 230° | 7 kt | 10000 meters | 23° | 73° | 7° | 44° | 36% | 1018 mb | 2,687 ft | |||
| 02-Sep | 12:00PM | VFR | 230° | 7 kt | 10000 meters | 22° | 71° | 9° | 48° | 43% | 1020 mb | 2,508 ft | |||
| 02-Sep | 11:00AM | VFR | 210° | 5 kt | 10000 meters | 20° | 68° | 10° | 50° | 53% | 1020 mb | 2,268 ft | |||
| 02-Sep | 10:00AM | VFR | 200° | 7 kt | 10000 meters | 18° | 64° | 10° | 50° | 59% | 1021 mb | 1,998 ft | |||
| 02-Sep | 09:00AM | VFR | 190° | 7 kt | 10000 meters | 17° | 62° | 10° | 50° | 63% | 1021 mb | 1,878 ft | |||
| 02-Sep | 08:00AM | VFR | 190° | 9 kt | 10000 meters | 14° | 57° | 10° | 50° | 77% | 1021 mb | 1,518 ft | |||
| 02-Sep | 07:00AM | VFR | 200° | 6 kt | 10000 meters | 12° | 53° | 10° | 50° | 88% | 1020 mb | 1,308 ft | |||
| 02-Sep | 06:00AM | VFR | 190° | 4 kt | 10000 meters | 12° | 53° | 10° | 50° | 88% | 1020 mb | 1,308 ft | |||
| 02-Sep | 05:00AM | VFR | 210° | 3 kt | 10000 meters | 12° | 53° | 10° | 50° | 88% | 1020 mb | 1,308 ft | |||
| 02-Sep | 04:00AM | VFR | 220° | 3 kt | 10000 meters | 12° | 53° | 9° | 48° | 82% | 1019 mb | 1,338 ft | |||
| 02-Sep | 03:00AM | VFR | Calm | 10000 meters | 11° | 51° | 8° | 46° | 82% | 1019 mb | 1,218 ft | ||||
| 02-Sep | 02:00AM | VFR | Calm | 10000 meters | 12° | 53° | 8° | 46° | 76% | 1019 mb | 1,338 ft | ||||
| 02-Sep | 01:00AM | VFR | 140° | 2 kt | 10000 meters | 13° | 55° | 8° | 46° | 72% | 1019 mb | 1,458 ft | |||
| 02-Sep | 12:00AM | VFR | Calm | 10000 meters | 14° | 57° | 8° | 46° | 67% | 1020 mb | 1,548 ft | ||||
| 01-Sep | 11:00PM | VFR | 160° | 3 kt | 10000 meters | 16° | 60° | 8° | 46° | 59% | 1020 mb | 1,788 ft |
Login
| Your browser is unsupported. upgrade your browser |
